When you browse on this site, cookies collect data to enhance your experience and personalize the content and advertising you see.
Visit our Privacy Policy to learn more. By continuing to use the site, you agree to this use of cookies and data.
  • In Romania
  • List of Countries
  • For 7 days
  • Water Temperature
  • Weather Map
  • Weather Widgets
  • user-avatar
    Login

    Hourly Weather Kamarang

    Today, 23 January, Thursday

    Time Temperature Precipitation Wind Pressure Humidity
    00:00 +19°C° 0 mm 0 mps 712 mmHg 91%
    01:00 +19°C° 0 mm 0 mps 711 mmHg 94%
    02:00 +19°C° 0 mm 0 mps 711 mmHg 97%
    03:00 +18°C° 0 mm 0 mps 711 mmHg 98%
    04:00 +18°C° 0 mm 0 mps 711 mmHg 98%
    05:00 +18°C° 0 mm 0 mps 711 mmHg 99%
    06:00 +19°C° 0 mm 0 mps 711 mmHg 94%
    07:00 +20°C° 0 mm 0 mps 712 mmHg 89%
    08:00 +22°C° 0 mm 0 mps 713 mmHg 84%
    09:00 +24°C° 0 mm 0 mps 713 mmHg 75%
    10:00 +28°C° 0 mm 1 mps 713 mmHg 66%
    11:00 +30°C° 0 mm 1 mps 714 mmHg 57%
    12:00 +30°C° 0 mm 1 mps 713 mmHg 55%
    13:00 +31°C° 0 mm 1 mps 712 mmHg 53%
    14:00 +31°C° 0 mm 1 mps 711 mmHg 50%
    15:00 +31°C° 0 mm 2 mps 710 mmHg 52%
    16:00 +30°C° 0 mm 2 mps 710 mmHg 54%
    17:00 +29°C° 0 mm 2 mps 710 mmHg 56%
    18:00 +27°C° 0 mm 1 mps 710 mmHg 64%
    19:00 +25°C° 0 mm 1 mps 710 mmHg 72%
    20:00 +21°C° 0 mm 0 mps 710 mmHg 80%
    21:00 +20°C° 0 mm 0 mps 711 mmHg 81%
    22:00 +20°C° 0 mm 0 mps 711 mmHg 82%
    23:00 +19°C° 0 mm 0 mps 712 mmHg 83%

    Tomorrow, 24 January, Friday

    Time Temperature Precipitation Wind Pressure Humidity
    00:00 +19°C° 0 mm 0 mps 711 mmHg 87%
    01:00 +18°C° 0 mm 0 mps 711 mmHg 91%
    02:00 +17°C° 0 mm 0 mps 711 mmHg 94%
    03:00 +17°C° 0 mm 0 mps 711 mmHg 96%
    04:00 +17°C° 0 mm 0 mps 711 mmHg 97%
    05:00 +17°C° 0 mm 0 mps 711 mmHg 98%
    06:00 +18°C° 0 mm 0 mps 712 mmHg 91%
    07:00 +20°C° 0 mm 0 mps 712 mmHg 84%
    08:00 +21°C° 0 mm 0 mps 713 mmHg 77%
    09:00 +24°C° 0 mm 0 mps 713 mmHg 66%
    10:00 +29°C° 0 mm 1 mps 714 mmHg 56%
    11:00 +31°C° 0 mm 1 mps 714 mmHg 45%
    12:00 +32°C° 0 mm 1 mps 713 mmHg 42%
    13:00 +32°C° 0 mm 2 mps 712 mmHg 40%
    14:00 +34°C° 0 mm 2 mps 712 mmHg 37%
    15:00 +32°C° 0 mm 2 mps 711 mmHg 41%
    16:00 +30°C° 0 mm 2 mps 710 mmHg 45%
    17:00 +29°C° 0 mm 2 mps 710 mmHg 50%
    18:00 +27°C° 0 mm 1 mps 710 mmHg 60%
    19:00 +24°C° 0 mm 1 mps 711 mmHg 71%
    20:00 +20°C° 0 mm 0 mps 711 mmHg 81%
    21:00 +19°C° 0 mm 0 mps 711 mmHg 82%
    22:00 +19°C° 0 mm 0 mps 712 mmHg 84%
    23:00 +18°C° 0 mm 0 mps 712 mmHg 85%

    Day after tomorrow, 25 January, Saturday

    Time Temperature Precipitation Wind Pressure Humidity
    00:00 +18°C° 0 mm 0 mps 712 mmHg 89%
    01:00 +17°C° 0 mm 0 mps 712 mmHg 92%
    02:00 +17°C° 0 mm 0 mps 712 mmHg 95%
    03:00 +17°C° 0 mm 0 mps 712 mmHg 96%
    04:00 +16°C° 0 mm 0 mps 712 mmHg 97%
    05:00 +16°C° 0 mm 0 mps 712 mmHg 98%
    06:00 +18°C° 0 mm 0 mps 712 mmHg 92%
    07:00 +19°C° 0 mm 0 mps 713 mmHg 85%
    08:00 +21°C° 0 mm 0 mps 714 mmHg 79%
    09:00 +24°C° 0 mm 0 mps 714 mmHg 66%
    10:00 +28°C° 0 mm 1 mps 714 mmHg 54%
    11:00 +31°C° 0 mm 1 mps 715 mmHg 42%
    12:00 +32°C° 0 mm 1 mps 714 mmHg 39%
    13:00 +33°C° 0 mm 1 mps 713 mmHg 37%
    14:00 +35°C° 0 mm 2 mps 712 mmHg 34%
    15:00 +32°C° 0 mm 2 mps 712 mmHg 38%
    16:00 +31°C° 0 mm 2 mps 711 mmHg 41%
    17:00 +30°C° 0 mm 2 mps 711 mmHg 45%
    18:00 +27°C° 0 mm 1 mps 711 mmHg 53%
    19:00 +25°C° 0 mm 1 mps 711 mmHg 62%
    20:00 +20°C° 0 mm 0 mps 711 mmHg 70%
    21:00 +20°C° 0 mm 0 mps 712 mmHg 73%
    22:00 +19°C° 0 mm 0 mps 712 mmHg 76%
    23:00 +19°C° 0 mm 0 mps 712 mmHg 78%

    26 January, Sunday

    Time Temperature Precipitation Wind Pressure Humidity
    00:00 +18°C° 0 mm 0 mps 712 mmHg 84%
    01:00 +18°C° 0 mm 0 mps 712 mmHg 89%
    02:00 +18°C° 0 mm 0 mps 711 mmHg 95%
    03:00 +18°C° 0 mm 0 mps 712 mmHg 94%
    04:00 +19°C° 0 mm 0 mps 712 mmHg 93%
    05:00 +19°C° 0 mm 0 mps 712 mmHg 92%
    06:00 +20°C° 0 mm 0 mps 713 mmHg 88%
    07:00 +21°C° 0 mm 0 mps 713 mmHg 85%
    08:00 +21°C° 0 mm 0 mps 714 mmHg 82%
    09:00 +24°C° 0 mm 0 mps 714 mmHg 71%
    10:00 +27°C° 0 mm 0 mps 714 mmHg 61%
    11:00 +29°C° 0 mm 0 mps 715 mmHg 50%
    12:00 +32°C° 0 mm 1 mps 714 mmHg 47%
    13:00 +33°C° 0 mm 1 mps 713 mmHg 44%
    14:00 +34°C° 0 mm 1 mps 712 mmHg 40%
    15:00 +32°C° 0.1 mm 1 mps 711 mmHg 49%
    16:00 +31°C° 0.1 mm 2 mps 711 mmHg 57%
    17:00 +29°C° 0.1 mm 2 mps 710 mmHg 66%
    18:00 +27°C° 0.1 mm 1 mps 711 mmHg 74%
    19:00 +25°C° 0.1 mm 1 mps 711 mmHg 83%
    20:00 +23°C° 0.1 mm 1 mps 712 mmHg 92%
    21:00 +21°C° 0 mm 0 mps 712 mmHg 93%
    22:00 +21°C° 0 mm 0 mps 712 mmHg 94%
    23:00 +20°C° 0 mm 0 mps 713 mmHg 95%

    27 January, Monday

    Time Temperature Precipitation Wind Pressure Humidity
    00:00 +20°C° 0 mm 0 mps 713 mmHg 96%
    01:00 +20°C° 0 mm 0 mps 712 mmHg 97%
    02:00 +20°C° 0 mm 0 mps 712 mmHg 98%
    03:00 +20°C° 0 mm 0 mps 712 mmHg 98%
    04:00 +20°C° 0 mm 0 mps 712 mmHg 97%
    05:00 +21°C° 0 mm 0 mps 712 mmHg 96%
    06:00 +21°C° 0.1 mm 0 mps 713 mmHg 95%
    07:00 +21°C° 0.1 mm 0 mps 713 mmHg 95%
    08:00 +22°C° 0.1 mm 0 mps 714 mmHg 94%
    09:00 +24°C° 0 mm 0 mps 714 mmHg 80%
    10:00 +27°C° 0 mm 0 mps 714 mmHg 67%
    11:00 +31°C° 0 mm 1 mps 715 mmHg 54%
    12:00 +32°C° 0 mm 1 mps 714 mmHg 51%
    13:00 +33°C° 0 mm 1 mps 713 mmHg 49%
    14:00 +34°C° 0 mm 2 mps 712 mmHg 46%
    15:00 +32°C° 0.4 mm 2 mps 712 mmHg 55%
    16:00 +30°C° 0.4 mm 2 mps 711 mmHg 63%
    17:00 +29°C° 0.4 mm 2 mps 711 mmHg 72%
    18:00 +27°C° 1.6 mm 2 mps 711 mmHg 80%
    19:00 +25°C° 1.6 mm 1 mps 712 mmHg 88%
    20:00 +23°C° 1.6 mm 1 mps 712 mmHg 97%
    21:00 +21°C° 0.2 mm 0 mps 712 mmHg 97%
    22:00 +21°C° 0.2 mm 0 mps 713 mmHg 98%
    23:00 +20°C° 0.2 mm 0 mps 713 mmHg 99%

    28 January, Tuesday

    Time Temperature Precipitation Wind Pressure Humidity
    00:00 +20°C° 0 mm 0 mps 713 mmHg 99%
    01:00 +21°C° 0 mm 0 mps 712 mmHg 99%
    02:00 +21°C° 0 mm 0 mps 712 mmHg 99%
    03:00 +21°C° 0.1 mm 0 mps 712 mmHg 99%
    04:00 +21°C° 0.1 mm 0 mps 712 mmHg 99%
    05:00 +20°C° 0.1 mm 0 mps 712 mmHg 99%
    06:00 +21°C° 0 mm 0 mps 712 mmHg 97%
    07:00 +21°C° 0 mm 0 mps 713 mmHg 96%
    08:00 +22°C° 0 mm 0 mps 713 mmHg 94%
    09:00 +24°C° 0 mm 0 mps 714 mmHg 82%
    10:00 +28°C° 0 mm 1 mps 714 mmHg 70%
    11:00 +31°C° 0 mm 1 mps 714 mmHg 58%
    12:00 +31°C° 0 mm 1 mps 713 mmHg 55%
    13:00 +32°C° 0 mm 1 mps 712 mmHg 52%
    14:00 +32°C° 0 mm 2 mps 712 mmHg 48%
    15:00 +32°C° 0 mm 2 mps 711 mmHg 52%
    16:00 +31°C° 0 mm 2 mps 711 mmHg 55%
    17:00 +30°C° 0 mm 2 mps 710 mmHg 58%
    18:00 +28°C° 0 mm 1 mps 711 mmHg 69%
    19:00 +26°C° 0 mm 1 mps 711 mmHg 80%
    20:00 +22°C° 0 mm 0 mps 712 mmHg 90%
    21:00 +21°C° 0 mm 0 mps 712 mmHg 93%
    22:00 +21°C° 0 mm 0 mps 712 mmHg 95%
    23:00 +21°C° 0 mm 0 mps 712 mmHg 97%
    Show more